Location: Montjean
(48.0167°N, 0.9667°W)
Time: 10:00:45
(UTC+02:00)

ISS - Pass Details

Date: 19 April 2026
Orbit: 414 x 424 km, 51.6° (Epoch: 20 May)

Event Time Altitude Azimuth Distance (km) Brightness Sun altitude
Exits shadow 06:13:22 - 199° (SSW) 1,781 -1.0 -9.1°
Reaches altitude 10° 06:14:13 10° 192° (SSW) 1,493 -1.3 -9.0°
Maximum altitude 06:16:51 22° 140° (SE) 981 -1.7 -8.6°
Drops below altitude 10° 06:19:31 10° 88° (E) 1,506 0.3 -8.2°
Sets 06:21:55 0° 72° (ENE) 2,377 2.3 -7.8°
